GALAXY 31 (G-31)

Last updated on Sat Aug 15 2026 00:03:03 GMT+0000 (Coordinated Universal Time)

1 54243U 22153A 26226.44280964 -.00000002 00000+0 00000+0 0 9997 2 54243 0.0142 110.0524 0001238 36.9665 214.2387 1.00271926 7719
UTC large
Height (km)
Speed (km/s)
/
Latitude / Longitude
Inclination (degrees)
Orbital Period (minutes)
Azimuth
Elevation
Range (km)
Doppler Factor

Next 0 passes for location: London (51.5072 / 0.1276)

No passes found over London.
GALAXY 31 (G-31)